Погода в Батамае

Россия / Республика Саха (Якутия)     63°31′28″N   129°25′11″E
темп.,
°C
ветер,
м/с
пор.,
м/с
влажн.,
%
обл.,
%
осадки,
мм/ч
давл.,
гПа
погр.,
м
27 февраля, сб
сб2700:00−34всв339519 0.0 103347
03:00−35в339515 0.0 103149
06:00−34в3794100 0.0 1031142
09:00−33в379481 0.0 1030174
12:00−28в36900 0.0 1029334
15:00−25в36881 0.0 1025277
18:00−27в239290 0.0 102431
21:00−28всв369295 0.0 1022142
28 февраля, вс
вс2800:00−28всв1190100 0.0 102019
03:00−28зсз1289100 0.0 101819
06:00−27з3590100 0.0 101890
09:00−26з3591100 0.0 1018147
12:00−25з4793100 0.0 1019265
15:00−26з5993100 0.0 1019330
18:00−28з51094100 0.0 1022269
21:00−31з359699 0.0 1023102
1 марта, пн
пн100:00−31зсз349697 0.0 1023157
03:00−30зсз349898 0.2 1023165
06:00−30з2498100 0.2 1023164
09:00−29з2396100 0.3 1024188
12:00−27з1291100 0.1 1024368
15:00−26з2291100 0.3 1024426
18:00−27з2498100 0.1 1025178
21:00−27зсз2398100 0.3 1025157
2 марта, вт
вт200:00−28зсз1298100 0.1 1025113
03:00−28зсз1297100 0.1 1024105
06:00−28зсз1197100 0.1 102588
09:00−29з129798 0.1 1025111
12:00−27з2290100 0.0 1025372
15:00−27зюз2392100 0.1 1024328
18:00−29з239698 0.0 102588
21:00−29з239899 0.1 1026105
3 марта, ср
ср300:00−29з2298100 0.1 1025101
03:00−30з2398100 0.3 1025124
06:00−30з2297100 0.1 1024120
09:00−29з2296100 0.1 1023160
12:00−28з2393100 0.1 1022292
15:00−27з3493100 0.1 1020321
18:00−29з3795100 0.1 1019295
21:00−29з4894100 0.1 1018327